Regional Weather Roundup
Issued by NWS

Home | Current Version | Previous Version | Graphics & Text | Print | Product List | Glossary Off
Versions: 1 2 3 4 5 6 7 8 9 10 11 12 13 14 15 16 17 18 19 20 21 22 23 24 25 26 27 28 29 30 31 32 33 34 35 36 37 38 39 40 41 42 43 44 45 46 47 48 49 50

000
ASUS43 KDTX 300210
RWRMI
MICHIGAN HOURLY REGIONAL WEATHER ROUNDUP
NATIONAL WEATHER SERVICE DETROIT/PONTIAC MI
1000 PM EDT SUN MAR 29 2015

NOTE: "FAIR" INDICATES FEW OR NO CLOUDS BELOW 12,000 FEET WITH NO
SIGNIFICANT WEATHER AND/OR OBSTRUCTION TO VISIBILITY.

MIZ047>049-052>055-059>063-066>070-074>076-081>083-300300-
SOUTHEAST LOWER MICHIGAN

CITY           SKY/WX    TMP DP  RH WIND       PRES   REMARKS
ADRIAN         CLOUDY    40  27  59 SW18G29   29.79F WCI  31
ALMA           LGT SNOW  36  35  96 SW12G20   29.67F WCI  27
ANN ARBOR      CLOUDY    40  25  55 SW15G24   29.77F WCI  32
BAD AXE        CLOUDY    36  29  76 SW21G30   29.66F WCI  24
CARO           LGT RAIN  37  31  81 SW17G29   29.67F WCI  27
DETROIT CITY   CLOUDY    44  23  43 SW23G32   29.76F
DETROIT        CLOUDY    43  25  49 S29G37    29.78F
FLINT          CLOUDY    39  30  70 SW17G31   29.72R WCI  30
GROSSE ILE     CLOUDY    43  27  52 S23G31    29.79F
HILLSDALE      RAIN      40  30  67 SW15G25   29.78S WCI  32
HOWELL         CLOUDY    38  31  76 SW16G29   29.73S WCI  29

CITY           SKY/WX    TMP DP  RH WIND       PRES   REMARKS
JACKSON        CLOUDY    39  31  72 SW16G30   29.75F WCI  30
LAMBERTVILLE   CLOUDY    43  28  56 S15G23    29.82F
LANSING        CLOUDY    38  31  76 SW22G30   29.72F WCI  27
LAPEER         LGT RAIN  38  27  64 SW18G29   29.71R WCI  29
MASON          CLOUDY    38  31  77 SW14G20   29.73F WCI  29
MONROE         CLOUDY    43  27  52 SW24G32   29.79F
MT. CLEMENS    CLOUDY    42  24  50 S18G30    29.72F
PONTIAC        LGT RAIN  40  24  53 SW16G28   29.73F WCI  31
PORT HOPE        N/A     35  30  82 S12G20    29.64F WCI  27
PORT HURON     CLOUDY    39  27  60 S21       29.73F WCI  29
TRI CITIES     CLOUDY    38  31  76 SW23G36   29.66S WCI  27
TROY           CLOUDY    43  22  43 S22G32    29.76F
SAGINAW HB     CLOUDY    37  32  81 SW18G29   29.67F WCI  27
$$
MIZ043>046-050>051-056>058-064>065-071>073-077>080-300300-
SOUTHWEST LOWER MICHIGAN

CITY           SKY/WX    TMP DP  RH WIND       PRES   REMARKS
BATTLE CREEK   LGT RAIN  38  34  85 SW18      29.76R FOG     WCI  28
BENTON HARBOR  CLOUDY    41  36  82 W22G30    29.83R
BIG RAPIDS     LGT SNOW  36  34  93 W20G28    29.63R WCI  25
COLDWATER      CLOUDY    41  32  70 SW18G32   29.78S
FREMONT        CLOUDY    38  35  91 W21G32    29.69R WCI  27
HOLLAND        CLOUDY    41  35  79 W24G33    29.77R
GRAND RAPIDS   LGT RAIN  38  35  89 SW17      29.72R FOG     WCI  28
IONIA          DRIZZLE   38  36  92 SW21G29   29.69S WCI  27
KALAMAZOO      LGT RAIN  41  35  79 SW12      29.78R
LUDINGTON      CLOUDY    38  34  85 W13G21    29.70R WCI  30
MARSHALL       CLOUDY    38  32  78 SW16G23   29.75S WCI  29
MOUNT PLEASANT LGT RAIN  35  33  93 SW14G20   29.63F WCI  26
MUSKEGON       CLOUDY    41  34  76 W22G35    29.74R
SOUTH HAVEN    CLOUDY    42  34  75 W17G25    29.80R
$$
MIZ016>042-300300-
NORTHERN LOWER MICHIGAN

CITY           SKY/WX    TMP DP  RH WIND       PRES   REMARKS
ALPENA         CLOUDY    35  30  82 SW10      29.54F WCI  27
BEAVER ISLAND  CLOUDY    33  32  96 W17       29.53R WCI  22
BELLAIRE       LGT SNOW  34  32  93 SW8       29.57S WCI  27
CADILLAC       LGT SNOW  34  32  94 SW9G17    29.58R WCI  26
CHARLEVOIX     LGT RAIN  35  34  98 W22       29.57S WCI  23
FRANKFORT      CLOUDY    39  32  77 NW13      29.64R WCI  31
GAYLORD        LGT SNOW  33  32  96 W18G30    29.52S FOG     WCI  22
GRAYLING       LGT SNOW  33  32  95 SW9       29.55F WCI  25
HARBOR SPRINGS FLURRIES  33  32  96 SW15G26   29.52S WCI  23
HOUGHTON LAKE  CLOUDY    33  31  92 SW15      29.57F FOG     WCI  23
MANISTEE       CLOUDY    37  30  75 W17G24    29.66R WCI  28
OSCODA         CLOUDY    34  32  92 SW18      29.60F WCI  23
PELLSTON       LGT SNOW  34  32  92 W15G29    29.52S FOG     WCI  24
ROGERS CITY    LGT SNOW  33  32  96 SW9       29.52F WCI  26
TRAVERSE CITY  LGT RAIN  37  33  85 W12       29.58R WCI  29
$$
MIZ007>008-015-300300-
EASTERN UPPER MICHIGAN

CITY           SKY/WX    TMP DP  RH WIND       PRES   REMARKS
KINROSS        CLOUDY    34  32  93 W12G17    29.46F WCI  25
MACKINAC ISLAN LGT SNOW  33  33 100 SW20G30   29.49S WCI  21
NEWBERRY       LGT SNOW  32  32  99 W14G21    29.48R WCI  22
S. S. MARIE    LGT SNOW  33  31  92 W9        29.45F FOG     WCI  25
MUNISING         N/A     37  32  82 NW15G30   29.56R WCI  28
$$
MIZ004>006-011>014-085-300300-
CENTRAL UPPER MICHIGAN

CITY           SKY/WX    TMP DP  RH WIND       PRES   REMARKS
MANISTIQUE     FLURRIES  33  33  99 NW14      29.54R WCI  24
ESCANABA       MOCLDY    36  32  87 NW13      29.60R WCI  27
MENOMINEE      MOCLDY    39  30  70 NW8G18    29.66R WCI  34
SAWYER-GWINN   FLURRIES  36  32  87 NW14      29.58R WCI  27
$$
MIZ001>003-009>011-084-300300-
WESTERN UPPER MICHIGAN

CITY           SKY/WX    TMP DP  RH WIND       PRES   REMARKS
IRON MOUNTAIN  CLOUDY    38  30  73 NW18G35   29.64R WCI  28
HOUGHTON       CLOUDY    35  30  82 NW18G32   29.64R WCI  24
COPPER HARBOR    N/A     35  31  85 N24G35    29.59R WCI  23
IRONWOOD       CLOUDY    37  28  70 W8        29.74R WCI  31
$$

ABBREVIATIONS USED IN REMARKS
   TC - TEMPERATURE IN CELSIUS
  WCI - WIND CHILL INDEX
   HX - HEAT INDEX
  VSB - VISIBILITY



USA.gov is the U.S. government's official web portal to all federal, state and local government web resources and services.